Wind_Speed
22 22 20 19 18 19 18 18 18 19 20 19 20 19 19 20 20 21 22 23 22 22 23 24 25 25 25 26 26 27 27 27 27 26 26 25 24 23 22 22 21 21 21 21 21 22 23 23 25 27 27 27 27 27 26 26 26 25 24 23 23 22 21 21 20 20 19 19 19 18 18 18 18 18 17 16 16 16 17 16 17 19 19 19 17
26 24 22 21 20 19 19 19 18 19 20 20 20 20 20 19 20 21 22 23 23 23 24 25 25 25 25 26 26 26 27 27 26 25 24 24 23 22 22 21 21 21 21 21 21 22 22 23 25 27 27 27 27 27 27 26 25 25 25 24 22 22 21 20 19 19 18 18 19 18 17 16 16 16 16 16 15 16 16 17 18 20 19 19 18
28 27 24 22 21 20 20 19 18 19 20 20 20 20 21 20 21 21 22 23 23 23 24 25 24 25 25 26 26 26 26 26 25 24 23 23 22 21 21 21 21 21 21 21 21 21 22 24 26 27 26 26 27 26 26 25 24 23 23 23 21 20 20 19 17 17 17 17 17 17 17 17 16 16 17 16 16 17 17 18 19 20 19 19 19
31 29 26 24 22 21 20 20 19 19 20 20 20 21 21 21 21 22 22 23 23 23 23 24 24 24 25 25 25 25 25 24 23 22 22 22 21 21 21 21 20 21 21 21 21 21 22 25 26 26 25 25 25 25 24 23 22 21 20 20 19 19 18 18 17 15 14 14 13 15 17 18 17 17 18 18 17 18 19 20 20 20 19 19 19
33 30 27 25 23 22 21 21 20 19 20 20 20 21 21 21 21 22 22 23 23 23 23 24 24 24 24 25 25 25 24 23 22 21 21 20 20 20 20 20 20 20 20 21 21 21 22 24 25 25 24 24 24 23 22 20 19 18 17 16 14 13 12 16 18 15 14 14 13 16 19 20 19 17 18 19 19 20 20 20 20 20 20 20 20
33 31 29 27 25 24 22 22 21 20 20 20 20 21 21 21 21 22 22 23 23 23 23 24 24 24 24 24 24 24 23 22 21 19 19 19 19 19 19 20 19 19 20 20 20 20 22 24 25 24 24 23 22 21 20 19 17 16 15 15 14 12 12 17 17 15 15 17 20 22 22 21 20 19 19 19 19 20 20 19 19 19 19 20 20
34 33 30 28 26 25 23 23 22 21 21 21 21 20 21 21 21 21 22 23 22 23 23 23 23 23 23 23 24 23 23 21 20 19 18 17 17 17 18 19 19 18 19 20 20 20 22 24 24 24 23 22 21 20 20 19 18 17 17 17 17 16 18 19 16 15 16 20 23 23 21 20 20 19 18 18 19 19 19 18 18 19 20 19 20
34 33 30 29 27 26 25 23 22 22 21 21 21 21 21 21 21 21 21 22 22 22 23 23 23 23 23 23 23 23 22 21 19 18 18 17 16 16 17 18 19 18 18 19 19 19 21 23 23 23 22 21 21 20 20 20 20 19 19 18 18 18 18 18 16 16 18 21 22 20 21 20 19 19 18 18 18 18 18 18 18 19 20 19 19
34 33 31 30 28 28 26 25 23 22 22 22 22 21 21 21 21 21 21 21 22 22 22 22 22 22 23 22 23 22 21 20 19 18 17 16 16 15 15 16 17 18 17 17 18 18 19 22 23 22 21 21 20 20 21 22 22 21 20 19 18 17 16 16 17 19 21 22 21 20 21 21 20 19 17 17 17 18 18 18 19 20 19 18 18
34 33 32 31 30 29 28 26 25 23 22 21 22 22 21 20 21 21 21 21 21 21 21 22 22 22 22 22 22 22 21 20 18 17 16 16 15 15 15 15 16 17 17 17 17 17 18 21 23 21 20 20 20 20 22 22 21 21 20 18 17 16 16 16 19 22 23 23 21 20 20 20 20 20 18 17 18 18 18 19 19 20 19 18 18
34 33 32 30 29 29 28 27 26 24 22 21 21 21 21 20 20 20 20 20 20 20 20 21 22 22 21 21 21 21 20 19 17 17 16 15 15 14 14 15 15 15 16 16 16 16 17 20 22 21 20 20 20 20 23 22 20 19 18 17 16 16 16 17 19 22 23 22 21 20 20 19 20 20 19 19 19 20 19 19 19 20 19 18 19
33 33 31 29 28 28 28 27 26 24 22 22 21 21 20 19 18 19 20 19 19 19 19 20 22 22 21 21 21 21 19 18 17 16 15 14 14 14 14 14 15 15 15 15 15 15 16 19 22 21 20 20 20 21 23 22 20 19 17 17 16 16 16 16 19 22 22 21 21 21 20 19 20 19 19 18 19 19 18 18 19 19 17 18 19
33 32 31 30 28 28 28 27 26 24 23 22 21 21 20 19 18 18 19 18 18 18 19 20 21 21 20 20 20 20 19 18 16 15 15 14 13 13 13 13 14 15 15 15 14 15 16 19 21 20 20 20 20 21 23 22 20 18 17 17 17 17 16 17 20 21 21 22 22 21 19 19 20 19 18 19 19 18 17 19 19 17 17 18 18
34 34 33 31 29 28 28 27 26 25 23 22 21 21 20 19 17 17 18 18 18 18 18 19 20 21 20 19 19 19 18 17 16 14 14 14 13 13 12 13 13 14 14 14 14 15 15 17 19 20 20 19 19 20 22 22 20 18 16 16 16 16 16 18 19 20 22 23 22 21 19 19 19 19 18 19 20 18 17 19 18 16 17 16 17
34 35 33 32 30 28 27 27 26 25 24 22 21 20 20 19 18 17 16 17 17 17 17 18 19 20 19 19 19 19 18 17 15 14 13 13 13 12 12 12 12 13 13 13 14 14 14 16 18 19 19 18 19 19 19 19 18 17 15 16 15 15 15 18 20 21 23 23 21 20 20 19 18 18 18 18 19 17 17 19 17 16 16 15 17
32 33 31 30 29 28 27 26 25 25 24 23 21 20 20 20 18 17 16 16 16 16 17 17 18 19 19 18 18 18 18 16 15 14 13 12 12 11 11 11 11 11 12 13 14 14 14 15 17 19 19 18 18 18 17 16 15 14 15 15 15 14 16 18 20 22 23 23 21 20 19 18 17 17 17 17 17 17 17 17 16 16 16 15 16
30 30 29 28 27 27 26 25 24 23 23 22 21 21 20 20 19 17 16 16 16 16 16 16 18 19 19 18 17 17 17 16 15 14 12 11 11 11 10 10 10 10 11 13 14 14 14 15 17 18 19 18 18 18 17 15 14 13 15 16 15 15 16 17 19 21 22 23 21 19 18 18 17 17 17 18 18 17 16 16 15 15 15 16 16
28 27 27 26 26 26 26 25 24 24 22 21 21 21 21 20 19 18 17 16 16 16 15 16 17 19 19 18 17 16 16 15 14 13 12 11 11 10 10 9 9 9 10 12 13 14 14 14 16 18 18 18 18 19 18 15 13 14 17 17 15 15 14 15 18 20 21 22 20 19 19 17 17 17 17 17 17 16 15 16 16 15 16 16 16
26 26 26 26 25 24 24 25 24 24 23 21 21 21 21 20 20 19 18 17 16 16 15 16 17 19 18 17 17 15 15 15 14 13 12 11 10 10 9 9 8 8 8 10 12 13 13 14 15 17 18 18 19 20 18 16 14 16 17 16 15 14 13 15 17 19 20 21 19 19 19 17 16 16 16 16 17 16 15 16 15 15 15 15 16
24 25 25 24 25 23 23 23 24 24 23 21 20 20 20 20 20 20 19 18 17 16 16 16 17 17 17 16 16 15 14 14 14 13 12 11 10 9 9 9 8 8 8 9 11 13 13 13 14 15 17 18 19 20 19 18 16 17 17 16 14 13 13 14 16 19 19 19 19 18 17 17 17 16 16 16 16 16 15 16 15 15 15 15 15
21 22 24 24 24 23 23 23 23 24 23 21 20 20 19 20 21 21 20 19 18 17 17 16 17 16 15 15 15 16 15 14 14 13 12 11 10 9 9 9 8 8 8 9 11 12 13 12 13 14 16 17 19 20 19 18 15 15 16 15 13 12 12 14 16 18 18 18 19 18 17 17 16 16 16 15 16 16 15 15 15 15 15 15 14
18 19 21 23 24 23 24 24 23 23 23 22 21 20 20 20 21 21 21 20 20 19 18 17 17 17 16 15 16 17 17 16 15 14 13 12 10 9 9 8 8 8 8 9 10 12 13 12 13 14 16 17 19 19 18 17 14 13 15 14 12 12 12 14 16 17 17 18 18 18 17 17 16 16 15 15 15 16 15 15 15 15 15 15 14
17 19 18 21 23 24 24 25 24 24 24 24 23 22 22 22 22 22 22 21 21 20 19 19 18 18 18 17 17 18 19 18 16 15 14 12 11 10 9 8 8 8 8 9 10 11 12 13 13 15 16 18 18 18 17 16 13 12 14 13 12 12 13 14 16 17 16 18 18 17 16 16 16 16 15 14 14 14 15 15 14 14 14 14 14
19 21 19 19 22 24 25 25 24 24 24 25 25 23 22 22 22 22 22 22 22 21 20 20 18 18 19 20 20 19 19 19 17 15 14 14 12 11 10 9 9 9 9 9 10 12 13 13 14 15 17 18 18 17 16 15 12 11 13 13 12 12 12 14 15 17 17 18 18 16 15 15 16 15 15 14 14 14 14 15 14 14 14 13 14
19 21 18 19 21 23 25 25 24 23 22 22 23 23 21 21 21 21 21 22 22 21 20 20 19 19 20 21 21 21 20 20 18 17 16 15 14 13 12 11 11 11 11 11 11 12 13 14 15 16 17 17 17 17 15 14 11 10 13 13 12 12 12 13 14 16 18 18 16 16 16 15 16 15 14 14 14 14 13 14 13 13 13 13 13
19 22 19 19 22 22 24 25 24 22 20 19 18 20 20 20 20 19 21 23 23 22 21 21 21 20 22 22 22 21 21 21 20 19 18 17 17 16 14 13 12 12 13 13 12 13 15 16 16 17 17 17 17 16 15 13 9 10 13 14 12 11 11 12 12 16 18 17 16 16 16 15 15 15 15 14 13 14 14 13 13 13 13 12 13
20 22 19 19 21 21 22 23 22 20 18 16 16 17 18 19 19 18 19 22 24 23 22 22 22 22 23 23 23 22 22 22 21 21 20 19 19 18 16 14 13 13 14 14 13 14 15 16 17 17 16 16 16 16 15 12 8 10 14 14 12 11 11 11 12 15 16 18 17 15 15 15 14 14 14 14 13 13 13 13 13 12 12 12 12
19 20 18 17 20 22 22 23 23 22 20 17 15 14 17 19 20 19 20 21 23 24 23 22 22 22 23 24 24 23 23 23 23 23 22 21 20 20 18 16 15 14 14 15 15 15 16 17 17 16 16 15 15 15 14 12 9 11 15 15 12 11 10 10 11 14 15 18 18 15 14 15 14 14 13 13 14 13 13 13 12 12 12 12 12
15 16 16 15 18 22 24 25 25 24 22 21 19 16 17 19 21 21 22 23 23 23 23 22 22 22 23 24 24 24 24 23 24 25 24 23 22 22 20 18 17 15 15 16 16 17 18 17 16 15 15 15 14 13 12 12 11 12 15 16 13 11 10 9 11 13 14 16 17 16 15 15 15 14 13 13 13 13 13 12 12 12 12 12 12
12 14 14 15 16 20 23 24 25 24 23 23 21 20 20 21 22 23 24 25 25 24 22 22 22 23 23 24 25 25 24 24 24 25 25 25 24 24 23 21 19 17 16 17 18 18 19 18 16 14 14 14 13 12 12 13 13 13 14 15 13 11 10 9 10 11 12 14 16 16 16 15 14 14 14 13 12 13 13 12 12 12 11 12 12
12 14 14 15 15 18 21 23 25 26 26 24 23 22 23 23 23 25 26 26 26 24 23 22 22 23 23 24 26 26 25 24 25 25 26 26 26 26 25 24 22 20 18 18 19 19 19 18 17 15 14 14 14 13 12 14 16 16 15 15 14 13 11 10 10 11 11 13 14 14 16 16 16 15 13 12 12 13 13 12 12 11 11 11 11
13 15 16 17 17 19 21 23 26 27 28 26 26 24 24 24 24 27 28 27 26 24 23 23 23 23 24 24 26 27 26 24 25 25 26 26 26 27 27 27 25 22 21 20 20 20 20 19 17 15 14 14 13 14 14 14 17 18 17 16 16 15 13 11 11 11 11 12 13 12 13 15 16 17 15 13 13 13 12 12 12 11 11 11 11
14 13 14 16 18 20 20 22 25 27 28 28 29 27 27 27 26 27 28 27 25 25 24 24 24 24 24 25 25 27 27 26 25 25 26 26 27 27 28 29 27 25 23 21 21 21 21 21 20 17 16 16 15 15 15 16 17 18 18 18 18 17 15 13 12 12 12 12 12 11 11 12 15 17 16 14 14 13 12 11 12 12 12 12 12
9 9 11 14 15 17 18 20 22 25 28 30 31 29 29 30 27 26 28 27 25 25 25 25 25 25 26 26 25 27 28 27 26 25 26 27 27 27 28 29 29 27 25 24 23 22 22 22 21 20 19 18 18 17 18 19 18 18 19 19 21 20 17 16 14 13 13 12 12 11 11 12 14 15 14 13 15 14 11 10 12 12 11 12 12
3 5 8 10 11 13 14 17 20 23 27 30 32 30 30 30 26 24 26 26 25 25 25 26 27 27 27 28 28 27 29 29 27 26 26 27 28 28 28 29 29 29 27 26 25 23 23 23 23 21 20 20 20 20 20 21 20 19 20 20 21 20 19 18 16 15 14 13 13 12 12 12 12 13 13 12 14 14 11 9 10 10 10 11 11
2 4 7 7 8 10 12 15 18 21 25 28 30 29 29 29 24 22 24 25 27 27 27 27 29 28 28 30 30 29 29 29 28 27 26 27 30 31 30 28 28 30 28 27 27 27 24 24 24 23 21 21 24 24 23 24 23 20 20 21 21 20 20 20 19 17 15 15 14 13 12 13 12 12 13 12 13 13 11 10 10 8 9 9 10
6 6 8 9 9 9 9 13 16 18 22 24 27 28 30 31 26 21 23 26 29 30 29 28 30 31 30 31 31 31 32 31 30 29 26 25 26 30 33 31 28 29 30 29 29 29 27 25 26 26 23 22 24 25 25 25 24 21 19 20 19 19 21 22 20 19 18 17 16 14 13 13 13 12 13 12 12 13 12 12 12 9 8 9 9
11 10 10 12 14 13 11 10 13 16 20 23 25 28 30 32 30 27 27 28 29 32 31 30 31 32 32 32 32 32 33 33 33 32 29 26 22 22 27 32 32 31 31 32 32 30 30 28 27 26 21 20 24 27 26 26 25 20 18 19 19 18 19 22 22 20 20 19 17 15 14 13 13 13 13 12 12 13 12 13 14 12 10 9 9
15 14 13 14 15 15 13 10 9 13 19 22 23 26 29 32 33 32 32 31 30 33 34 33 33 34 34 34 34 32 32 33 34 35 33 30 25 23 24 27 31 34 34 34 34 34 33 31 30 26 20 19 24 28 26 25 23 21 20 19 18 17 18 22 24 22 21 19 17 16 15 15 14 13 13 13 13 13 12 13 15 14 13 11 10
17 18 18 17 16 16 15 11 8 9 15 21 22 23 26 28 31 32 34 36 35 35 37 36 35 35 35 36 35 32 31 31 33 35 34 31 30 30 29 28 28 31 36 37 35 34 34 32 31 27 22 20 24 26 25 25 24 22 22 20 15 14 18 22 24 23 22 21 19 17 17 16 16 15 14 14 14 14 13 13 14 14 14 13 12
19 21 22 22 20 17 16 13 10 7 13 20 24 24 24 24 24 27 29 32 35 36 37 38 36 36 36 36 35 31 29 28 29 33 34 33 33 33 32 30 27 26 31 38 36 33 32 32 30 28 24 21 23 24 25 26 24 18 16 16 13 12 16 21 24 24 23 22 20 19 18 18 18 17 16 16 16 15 14 14 14 14 13 13 14
19 21 22 23 23 21 17 14 12 9 10 18 24 25 26 23 17 17 22 26 31 36 38 38 37 35 34 35 35 31 28 25 25 29 33 35 35 34 31 31 30 27 27 31 34 31 31 32 30 28 26 23 22 23 25 24 20 17 14 10 8 10 13 19 23 24 24 23 22 21 20 20 20 19 18 17 18 18 17 16 16 14 13 13 14
19 20 21 21 22 23 21 16 13 12 11 14 21 24 25 24 19 22 29 29 29 34 37 36 36 35 33 33 33 32 29 27 25 26 31 35 36 36 33 31 32 30 28 27 29 30 29 31 31 29 26 23 22 23 26 25 19 18 15 8 5 5 7 13 18 22 23 24 24 23 23 22 20 19 20 20 20 20 19 18 18 16 15 14 14
24 25 25 22 21 22 23 21 16 13 14 14 17 21 23 25 25 26 27 25 20 21 26 28 30 33 33 33 33 32 31 29 29 27 28 32 36 36 34 32 32 33 32 29 29 29 27 29 31 30 27 24 22 21 24 27 24 20 11 3 3 4 4 8 13 17 19 22 26 26 25 24 22 22 22 22 21 21 21 20 19 18 17 15 15
28 29 29 26 24 23 22 23 21 16 15 15 14 15 20 25 25 19 15 17 16 13 16 20 23 27 28 30 31 32 31 30 29 28 28 31 35 37 35 33 34 35 35 31 30 30 28 28 29 29 28 26 24 20 20 26 28 26 19 7 4 3 3 4 8 12 16 19 24 27 27 25 24 24 24 24 23 22 22 22 21 20 19 19 17
28 29 29 28 27 25 23 23 23 21 17 14 13 13 18 23 23 15 7 7 8 7 9 11 13 18 22 25 27 28 29 29 28 28 29 32 35 36 35 33 35 37 36 33 31 30 28 29 30 29 28 27 26 21 20 23 25 28 29 22 15 10 5 6 4 5 12 17 20 24 28 27 26 26 25 24 24 23 23 22 23 22 21 21 20
28 29 28 28 27 26 24 24 24 23 20 13 13 15 17 20 20 17 14 11 12 13 13 11 9 11 16 20 22 23 26 27 27 27 29 32 35 36 35 34 35 36 35 33 31 30 29 29 30 30 29 27 27 24 21 22 24 26 29 27 24 19 13 10 7 2 4 11 18 22 26 28 28 28 27 27 25 24 24 24 23 23 23 22 22
28 29 29 29 29 26 24 23 24 24 23 17 13 15 16 18 17 18 22 24 23 21 23 21 17 17 18 20 21 21 23 25 26 26 27 31 34 35 35 34 35 34 33 32 32 31 30 29 29 31 31 29 29 28 26 25 25 27 28 26 24 21 18 16 16 13 6 3 10 16 21 26 29 31 30 29 28 27 26 26 25 25 25 24 24
29 30 30 30 30 28 25 23 22 23 24 21 16 16 16 18 18 18 21 24 24 22 23 25 23 23 24 24 23 22 22 24 25 25 27 30 33 34 33 33 34 34 32 32 32 32 31 31 31 31 31 31 30 30 30 30 28 28 28 27 24 20 18 18 21 20 12 5 5 7 14 19 23 31 33 31 30 30 28 27 26 26 26 26 26
30 30 30 30 30 29 28 26 23 21 23 23 21 18 15 16 18 20 21 21 22 23 24 25 22 22 23 24 24 23 23 24 26 26 27 30 33 33 32 33 34 34 32 32 32 33 33 33 33 33 33 33 33 31 31 32 31 30 29 28 25 20 16 14 17 19 14 8 6 6 13 16 15 24 33 34 33 32 31 30 28 28 28 27 26
32 32 30 30 30 30 29 29 25 21 22 24 23 22 18 16 18 20 21 21 21 22 24 26 24 22 23 24 24 24 25 26 27 27 28 30 32 33 32 32 32 32 33 33 34 34 34 34 34 35 35 36 35 32 31 31 31 30 29 29 29 26 20 15 15 19 15 9 6 5 12 19 18 22 28 32 35 33 32 32 31 30 30 29 28
Wind_Direction
176 178 174 171 173 166 161 156 152 146 141 141 139 138 138 137 136 135 134 130 127 122 119 120 121 119 116 114 113 113 112 111 110 110 111 112 112 112 112 112 111 111 111 110 110 110 110 109 109 109 107 106 105 105 105 104 103 102 101 100 100 98 96 94 92 91 88 86 85 84 84 84 83 84 84 84 84 82 80 78 78 76 75 77 76
179 178 175 172 174 169 164 160 154 149 143 144 142 143 142 141 141 138 137 132 129 123 121 123 122 120 117 116 115 114 113 112 112 112 112 113 113 113 113 113 112 112 113 112 112 111 110 110 111 111 109 109 108 108 107 106 105 103 101 98 99 99 95 92 93 94 94 93 90 86 83 81 78 78 79 79 79 79 82 82 81 80 79 80 78
177 175 174 170 173 169 166 163 157 152 146 147 147 146 145 145 144 142 139 134 130 125 124 125 124 122 119 118 116 115 114 113 113 113 113 114 114 114 114 114 114 114 114 114 114 112 111 112 114 113 111 110 110 110 108 106 105 103 100 98 98 97 95 92 93 96 98 98 95 92 86 79 72 71 76 77 77 79 83 84 83 83 83 83 81
173 173 171 170 174 170 167 165 160 154 150 151 151 150 148 149 148 146 142 137 132 127 127 128 127 124 121 119 117 116 115 115 114 114 115 115 116 115 115 115 116 116 116 116 116 115 113 116 116 114 112 111 110 108 106 105 104 103 101 98 96 98 98 94 95 97 97 95 96 95 90 84 78 76 78 78 79 83 84 85 85 84 84 84 83
171 171 170 169 173 171 169 167 163 157 153 154 154 153 151 151 151 149 145 140 135 130 131 131 129 126 123 121 119 118 117 116 116 116 116 117 117 117 117 116 116 118 118 118 118 117 117 119 118 115 114 112 109 105 103 100 98 97 96 94 93 98 100 97 99 98 94 88 89 93 91 89 85 82 83 81 83 87 87 86 86 84 84 85 86
171 170 170 169 172 172 170 168 165 160 157 157 156 156 154 153 153 152 148 144 138 133 134 134 132 128 125 124 122 121 119 119 119 119 118 118 118 119 119 117 118 119 120 119 119 118 119 122 119 118 116 113 109 104 100 93 90 91 95 98 97 98 102 110 108 99 93 88 90 93 92 92 89 86 85 85 88 90 90 87 86 85 85 87 89
172 170 170 169 171 171 170 169 167 163 160 159 159 158 156 155 155 154 151 147 142 136 136 136 134 130 128 126 124 123 122 122 122 122 120 119 119 120 121 120 119 120 122 121 121 119 122 126 123 120 117 113 109 103 96 90 92 100 106 110 107 102 105 115 112 99 95 93 94 95 96 96 92 87 87 89 90 91 89 86 88 89 87 87 89
170 170 170 169 172 170 170 169 168 167 162 162 161 160 159 158 157 157 154 150 145 139 138 138 136 133 131 129 127 125 125 125 126 126 123 122 122 123 122 121 119 120 123 123 122 121 124 129 127 122 119 114 108 101 92 92 98 105 110 111 109 108 109 110 103 98 100 100 99 99 98 96 94 92 91 90 89 88 89 90 92 88 85 85 87
169 170 170 171 172 170 169 169 170 169 165 164 162 162 161 160 159 159 158 153 149 142 140 141 140 137 134 132 130 128 128 128 130 128 126 125 125 126 125 123 121 120 122 124 124 123 127 133 131 125 121 115 107 100 91 95 105 107 109 107 107 108 109 105 100 100 103 104 103 101 98 96 97 96 95 93 91 91 93 94 91 88 90 89 87
169 170 171 171 171 171 170 170 172 170 166 165 164 163 163 163 162 161 161 157 152 147 142 143 143 140 138 136 133 132 131 132 133 131 128 127 127 128 128 126 124 120 121 124 127 128 129 135 135 129 124 116 109 101 92 98 109 110 108 104 103 103 102 103 103 104 105 106 104 101 99 98 96 95 96 98 96 94 95 92 91 92 93 90 87
169 170 171 171 169 171 171 171 172 171 167 166 166 166 165 164 164 163 163 160 156 151 146 146 147 145 142 140 137 135 135 135 135 134 131 129 131 131 130 129 126 123 121 123 128 132 132 136 138 133 127 119 112 103 94 100 110 111 109 105 103 101 101 104 108 109 110 109 104 101 102 102 99 97 96 95 94 93 92 92 93 93 91 91 89
168 170 170 168 167 170 171 171 172 171 169 167 168 167 167 166 165 165 165 164 160 156 151 150 151 149 146 143 141 139 138 138 138 138 135 132 134 132 131 130 129 127 125 124 128 134 135 137 139 136 130 123 116 107 97 100 110 111 109 106 104 103 102 106 112 113 111 108 104 102 103 102 99 98 98 99 97 93 93 95 92 91 94 95 91
167 169 168 167 165 170 171 171 172 173 172 169 169 169 169 168 167 167 167 167 164 161 155 154 155 153 151 147 144 143 141 142 143 142 137 135 136 134 131 130 131 131 130 129 131 135 137 137 139 138 133 126 120 112 101 100 109 113 111 108 105 103 102 107 113 113 110 108 106 105 103 102 99 97 99 103 98 95 98 96 92 94 96 95 94
167 168 169 169 166 168 171 172 173 173 173 171 171 171 171 171 170 170 169 170 168 166 161 158 159 158 156 152 149 147 145 145 146 146 141 140 141 136 133 131 133 133 132 132 133 135 138 140 142 141 136 130 124 118 108 104 107 111 114 113 109 105 103 109 112 112 111 109 107 107 106 103 102 100 99 100 97 99 100 95 96 97 95 95 97
166 167 169 170 168 169 172 173 174 175 174 173 173 173 173 172 172 173 171 172 171 171 166 163 163 163 161 157 154 151 148 148 150 150 147 147 144 141 137 134 135 137 136 137 137 136 139 143 144 145 141 135 128 123 115 110 108 111 119 118 112 107 104 108 111 113 112 110 108 108 107 102 102 102 99 98 98 102 100 97 98 96 96 97 96
163 165 166 169 169 169 171 173 174 175 175 174 174 174 174 174 174 175 174 174 174 174 173 169 167 167 166 162 159 155 151 151 154 154 154 154 148 144 141 138 138 141 144 142 140 138 140 143 145 146 143 138 132 126 121 114 108 116 130 127 116 109 105 105 110 115 113 111 111 109 107 105 105 103 101 103 104 103 100 100 102 97 97 97 96
160 162 162 164 166 167 169 172 173 174 175 176 175 175 176 176 175 176 176 177 177 177 177 175 172 171 171 169 164 159 155 155 157 158 159 161 155 150 145 142 139 142 149 145 142 141 142 145 145 146 142 137 132 129 124 112 103 116 134 133 120 113 108 104 109 114 114 115 114 111 108 108 108 106 106 108 105 101 100 102 103 100 98 98 99
161 161 161 162 162 166 170 171 173 172 174 175 174 175 176 177 176 177 178 179 179 179 181 180 177 175 174 172 169 165 161 160 161 162 164 167 165 158 150 148 145 144 152 148 144 146 146 147 146 146 142 136 131 130 124 107 101 119 133 134 125 117 111 106 111 114 116 119 117 112 111 109 108 109 109 110 108 104 102 101 102 101 99 99 100
161 162 160 162 162 166 170 170 173 173 173 174 175 176 177 179 178 179 179 181 181 180 182 184 182 178 176 175 173 170 168 167 166 167 169 171 173 167 158 156 155 148 152 154 150 150 150 150 149 147 143 137 133 133 124 104 103 123 135 137 129 120 113 109 115 118 118 119 116 112 113 114 112 112 111 110 111 107 104 105 107 102 97 99 102
159 163 160 160 162 165 170 171 174 173 174 175 176 176 177 179 178 180 181 182 182 182 183 185 185 180 177 177 175 174 174 173 171 172 173 175 177 175 166 162 164 156 152 156 154 154 153 152 151 149 144 140 137 136 125 107 108 128 138 138 130 121 114 113 119 122 120 117 114 112 113 117 117 113 111 110 109 109 106 107 107 102 100 104 105
154 161 161 161 162 165 169 172 175 175 175 175 176 175 176 179 179 180 182 183 183 183 184 185 185 181 179 178 178 180 180 178 177 178 179 179 181 178 170 166 170 164 156 157 157 157 156 155 155 150 145 143 141 138 129 113 112 131 139 137 132 120 113 116 124 124 120 118 116 117 118 119 119 115 113 111 111 112 110 108 107 105 106 106 105
148 155 160 162 163 166 169 171 175 177 176 175 176 176 176 178 179 180 181 184 184 184 185 187 187 184 183 183 186 187 186 184 183 184 184 184 185 185 178 172 173 170 164 158 160 161 158 159 159 153 147 146 143 139 133 119 114 131 142 142 133 120 115 118 124 124 121 121 120 120 122 121 120 118 116 115 114 113 112 111 109 108 108 107 108
148 153 156 162 165 169 171 173 175 178 178 176 177 177 177 177 179 180 181 183 186 187 187 190 193 190 185 187 193 192 191 189 187 189 189 188 190 192 188 182 179 175 173 163 162 164 162 162 161 155 150 148 143 139 136 124 118 131 143 145 135 122 118 120 124 123 119 121 123 121 122 122 122 120 116 117 117 114 114 114 112 110 109 110 110
157 157 155 164 171 175 177 178 177 178 179 178 177 177 177 178 179 179 182 183 186 190 189 190 191 192 188 189 197 197 195 193 191 194 193 195 196 198 198 195 191 181 181 173 166 167 165 165 162 157 155 152 146 142 141 131 125 135 146 147 136 127 122 123 127 125 120 121 126 126 125 124 124 124 120 121 121 117 116 117 116 114 112 112 113
162 157 156 170 178 180 181 179 177 178 180 178 176 174 176 179 180 180 183 184 186 189 189 188 188 193 193 192 199 201 200 197 196 198 199 201 201 202 203 202 200 188 186 184 174 170 169 169 165 161 158 155 149 146 145 137 131 140 152 153 141 132 128 127 130 131 129 128 129 130 128 127 126 126 125 125 124 123 121 119 118 117 116 114 115
159 159 163 178 184 181 179 179 177 177 180 180 174 172 176 180 182 183 186 185 185 188 189 190 191 196 197 196 200 203 204 202 201 202 203 205 205 206 206 207 207 196 189 188 183 176 175 173 166 163 161 157 152 150 148 142 141 150 155 157 149 139 134 133 133 135 136 134 132 132 131 129 130 130 129 128 128 128 126 124 123 120 120 118 117
160 165 168 173 179 178 177 176 173 173 176 180 179 178 182 185 186 188 189 187 186 189 193 195 195 198 198 199 202 204 207 205 204 205 206 208 209 210 209 210 211 206 195 190 189 184 180 177 168 165 165 162 156 152 152 146 149 160 159 160 154 146 140 138 139 138 139 140 137 137 138 135 135 136 135 133 132 134 133 130 128 125 124 122 121
158 164 168 166 172 176 177 174 174 176 175 178 182 189 196 196 193 193 193 193 192 193 198 199 199 201 200 202 205 206 209 208 207 208 208 209 212 213 213 213 213 212 203 194 194 190 186 181 173 172 171 171 165 158 158 151 155 166 164 164 161 154 147 143 145 141 139 145 143 142 145 143 142 141 140 141 139 137 136 134 132 130 129 126 126
155 161 169 168 171 176 178 178 180 183 185 187 188 194 204 205 202 198 195 196 198 200 203 204 203 204 203 205 208 209 210 210 210 211 211 211 213 216 216 215 216 216 210 201 198 196 192 187 184 184 181 181 179 172 169 160 161 173 171 168 167 162 155 150 152 147 142 147 148 148 149 147 146 146 145 145 145 141 138 139 137 135 135 131 130
162 169 174 173 171 175 180 183 187 190 193 192 190 192 196 201 204 204 200 197 199 203 205 208 208 209 209 208 210 210 211 211 212 214 214 214 215 217 219 218 217 217 215 208 202 201 199 195 195 195 191 191 190 184 184 175 169 179 180 174 173 170 166 160 156 153 149 150 151 151 153 152 149 150 151 150 150 149 143 142 141 139 140 137 135
172 183 186 188 182 180 185 194 199 199 197 193 191 192 192 197 203 207 207 202 200 201 206 212 213 213 213 213 212 211 213 215 215 217 218 218 218 219 220 221 220 218 218 214 208 204 203 201 198 196 194 195 192 188 191 184 174 179 185 182 181 178 176 170 162 160 157 156 156 156 157 159 158 155 158 163 160 156 150 147 147 145 146 144 142
192 199 197 198 200 197 195 200 207 203 199 197 195 194 196 197 201 207 210 208 204 203 206 212 216 216 215 216 217 213 214 218 219 221 222 223 222 222 222 223 223 221 220 219 214 208 205 203 201 199 199 200 198 195 196 191 179 181 190 192 190 187 184 181 173 168 165 163 162 160 159 162 165 161 162 165 159 157 155 152 151 151 151 150 146
201 204 204 209 214 212 206 206 208 206 203 203 201 197 197 196 199 207 210 210 208 208 208 211 215 216 215 217 221 219 217 220 222 224 227 228 227 226 225 226 226 224 224 222 219 213 209 208 208 208 207 208 210 206 205 201 187 186 197 200 196 193 191 188 183 177 172 169 166 164 160 160 166 167 169 168 161 161 165 162 157 157 160 158 153
207 211 225 230 223 214 212 213 210 209 209 207 203 198 196 197 198 205 210 211 211 211 212 212 213 213 213 214 219 222 221 223 224 225 228 230 231 231 230 230 229 227 227 226 223 217 212 212 215 216 216 216 216 215 213 207 192 191 203 205 200 197 197 195 190 185 179 172 168 168 164 159 163 167 171 169 165 171 181 174 164 165 167 163 160
227 240 251 242 226 215 214 215 212 211 210 207 205 203 202 200 200 206 212 217 219 216 214 214 213 212 211 211 215 220 222 225 227 228 231 231 232 235 236 235 232 229 228 227 225 219 214 216 219 219 221 224 224 220 217 210 195 192 201 202 200 200 201 200 195 190 184 177 173 171 167 163 163 165 167 164 166 180 190 179 172 173 172 168 165
300 302 290 273 253 238 224 218 215 213 210 208 211 212 209 205 204 209 214 221 226 224 219 217 214 211 210 210 211 215 220 224 227 230 235 236 235 236 238 239 236 231 228 227 225 221 218 219 222 224 225 229 229 224 220 212 196 190 194 195 198 202 205 204 200 194 186 182 180 176 174 170 168 169 171 168 171 186 191 184 191 190 179 177 171
341 334 328 325 310 289 262 235 224 219 214 212 216 217 213 209 205 206 212 219 226 228 224 219 215 212 211 212 212 212 216 220 222 224 229 234 237 238 238 238 237 233 229 228 226 223 222 223 227 226 225 228 224 217 212 204 195 192 193 196 201 207 210 208 205 199 190 187 185 183 182 179 176 176 179 178 178 191 195 192 201 208 196 190 183
5 351 344 344 336 323 309 270 241 226 217 213 215 216 213 210 205 203 208 214 223 228 225 221 218 215 213 214 215 214 215 218 219 221 222 223 231 243 244 239 236 233 230 230 229 226 224 226 229 224 220 223 212 203 201 196 194 194 193 200 207 211 218 215 207 201 195 193 191 191 190 186 186 186 186 188 189 196 200 196 201 210 208 200 195
24 14 360 354 352 345 334 309 269 236 220 215 214 213 211 210 208 205 207 211 218 225 224 222 220 218 216 215 216 217 218 219 219 219 221 222 228 243 252 248 240 232 228 231 232 229 226 227 227 221 214 213 204 201 201 197 195 195 194 202 210 212 218 215 207 204 203 200 199 200 198 193 193 197 196 196 197 200 203 201 202 207 209 208 206
27 24 14 4 2 2 353 339 308 256 227 217 212 213 211 209 209 208 208 211 213 219 223 223 221 219 220 218 217 218 220 222 221 222 224 226 229 236 244 250 251 240 228 228 232 230 228 225 221 216 211 206 202 203 204 199 195 194 194 199 205 209 213 211 208 207 208 208 207 207 205 201 199 203 207 205 204 205 207 207 206 207 207 208 211
23 21 17 10 5 5 358 349 334 284 239 224 215 215 215 211 213 214 213 214 213 216 221 223 222 221 221 220 218 218 221 223 222 224 229 232 231 233 234 237 251 258 237 228 230 230 226 220 215 214 214 209 203 203 203 197 191 188 190 193 192 194 205 210 210 211 211 212 213 213 212 209 207 208 212 214 213 210 211 213 213 213 211 209 212
14 16 16 12 7 5 358 347 336 307 261 237 225 222 219 210 214 225 220 218 218 217 220 222 222 223 223 222 221 220 222 226 226 229 234 236 235 235 232 228 236 254 252 235 229 228 223 216 214 215 216 217 213 207 203 196 187 180 177 180 189 193 202 209 212 215 216 216 216 217 216 215 214 214 214 217 220 217 217 218 219 219 216 215 215
0 5 10 11 8 6 1 352 335 312 291 257 234 228 223 213 218 229 222 219 223 221 220 220 220 222 224 224 224 223 224 227 232 235 236 237 238 237 235 230 228 235 246 242 229 225 224 218 215 216 216 219 220 213 208 204 193 176 170 174 194 198 216 218 216 218 220 220 219 218 218 219 220 221 219 219 222 222 222 222 224 225 222 220 217
358 358 1 4 5 4 0 357 346 318 299 278 248 237 236 231 229 229 224 223 234 234 225 221 219 219 223 225 227 226 224 228 232 232 233 236 237 237 237 235 229 225 228 235 230 223 224 221 216 216 216 215 217 216 213 209 201 184 168 138 147 172 234 229 222 225 224 222 222 221 220 221 222 223 222 222 224 226 226 225 226 228 228 225 219
360 357 357 358 358 359 357 355 353 338 308 286 270 252 247 247 239 231 233 235 242 250 239 230 222 218 221 226 228 228 227 230 230 228 230 233 232 233 234 234 229 222 216 222 228 224 221 222 219 217 217 216 217 220 216 210 207 200 192 174 139 174 230 203 213 231 228 223 223 223 222 223 224 223 224 226 226 227 228 228 228 229 231 230 226
360 357 356 357 355 355 356 351 350 350 332 294 278 267 249 248 245 235 247 260 249 251 258 259 235 218 220 223 226 228 228 229 228 227 228 229 229 230 230 229 227 221 213 212 221 224 222 221 221 220 220 220 220 224 223 214 211 208 204 203 205 209 191 159 165 239 237 230 226 224 223 223 224 225 226 228 229 228 227 228 229 230 232 232 232
0 357 353 353 353 353 355 351 347 351 350 322 284 273 251 241 239 229 226 235 231 222 233 263 267 239 231 225 226 230 229 229 229 230 230 228 229 230 228 225 223 220 216 212 215 222 225 223 223 224 225 224 222 224 228 221 215 212 210 210 213 215 208 189 178 177 235 235 229 225 224 224 224 226 227 229 230 230 229 229 230 232 233 234 235
0 358 352 349 348 348 349 348 346 347 351 342 304 281 258 239 239 232 227 232 232 223 220 229 238 239 237 232 231 236 234 232 232 233 234 230 229 230 227 223 219 218 217 215 216 220 225 225 224 226 227 228 226 227 230 225 218 215 214 213 214 219 220 213 209 202 185 214 225 226 226 225 225 227 229 231 232 233 232 230 231 233 235 236 236
358 354 350 347 345 345 343 342 342 341 342 342 327 302 271 249 250 244 237 239 235 226 219 218 218 221 228 230 232 237 238 234 233 235 235 232 230 230 228 223 219 215 214 215 217 220 224 225 225 225 227 229 231 232 231 229 224 218 216 216 218 223 222 219 216 208 196 195 213 219 220 222 228 230 230 231 233 234 235 235 234 235 237 238 238
354 349 345 344 343 342 341 339 337 334 333 336 333 319 291 264 260 254 249 246 234 225 223 221 218 218 224 227 229 235 239 237 235 235 235 233 231 229 227 224 222 218 215 214 215 218 221 224 226 227 229 231 232 232 231 233 232 226 220 217 218 223 220 214 211 206 203 208 214 214 209 207 220 230 229 229 231 233 235 236 236 237 238 239 241
348 344 340 338 339 339 339 337 334 330 328 329 330 325 307 280 269 259 250 250 242 231 228 229 229 227 227 228 228 231 235 235 235 236 236 233 230 228 227 225 224 223 222 219 216 216 218 222 226 227 229 230 231 231 231 234 235 232 227 221 219 220 220 217 210 206 205 207 211 219 213 211 219 229 230 229 230 231 233 235 236 237 239 240 241
Height
806 807 809 809 811 811 812 812 812 811 812 813 813 814 815 816 816 817 818 819 820 820 821 821 821 822 822 822 823 823 824 824 825 825 826 826 827 827 827 828 828 828 828 828 828 828 828 828 828 828 827 828 828 829 830 831 831 831 832 832 833 833 834 834 834 834 835 835 835 835 835 834 835 834 834 834 834 834 834 834 834 833 834 834 834
802 806 808 809 811 811 812 812 812 812 812 812 813 814 815 817 818 819 819 819 820 821 821 822 823 823 824 824 825 825 826 826 826 827 828 828 828 829 829 829 829 829 829 829 829 829 829 829 829 829 829 829 830 831 831 832 832 832 832 833 834 834 835 835 835 835 836 836 836 836 836 836 836 836 836 836 836 836 835 836 835 835 835 836 835
800 805 807 809 811 811 812 812 812 811 812 813 813 814 815 818 819 820 820 820 821 821 822 823 824 824 825 825 826 827 827 828 829 829 829 830 830 830 830 830 830 830 830 830 830 831 831 830 830 830 830 830 831 832 832 832 832 833 833 834 834 835 836 836 836 836 837 837 836 836 837 837 837 837 837 837 837 837 837 837 837 837 837 837 837
799 803 806 808 810 811 811 812 812 812 813 813 814 815 816 818 819 820 821 821 822 823 823 824 825 825 826 826 827 828 829 830 831 831 831 831 831 831 831 831 831 831 831 831 832 832 832 832 832 831 832 832 832 832 833 833 833 834 834 834 835 836 836 837 837 837 838 838 838 837 837 838 838 839 839 839 839 839 839 839 839 839 839 839 839
799 802 805 807 809 810 811 812 813 813 813 814 815 816 816 818 819 821 821 822 823 824 824 825 825 826 827 827 828 829 830 832 833 833 833 833 833 833 833 832 832 832 832 832 833 833 834 834 833 833 833 833 833 833 834 834 834 835 835 835 836 836 837 837 838 838 839 839 839 838 839 839 840 840 840 841 841 841 841 841 841 841 841 840 840
798 801 804 805 807 809 810 811 812 813 814 815 816 817 817 818 820 821 822 823 824 825 825 826 826 827 827 828 830 830 832 833 834 835 835 835 835 835 835 834 834 834 834 834 834 834 835 835 835 835 834 834 834 835 835 835 835 835 835 836 836 837 837 838 839 839 839 840 840 839 840 841 841 842 842 842 842 842 842 842 842 842 842 842 842
797 800 803 804 806 807 809 811 812 813 813 815 816 817 818 819 820 822 823 824 825 826 826 827 827 827 828 830 831 832 833 834 836 836 837 837 837 837 837 836 835 835 835 835 835 836 836 836 836 836 836 836 836 836 836 836 836 835 836 836 837 837 838 839 839 840 840 840 841 841 842 842 842 843 844 844 843 844 844 844 844 844 844 844 844
796 799 801 802 804 806 808 810 811 812 813 814 815 817 819 820 821 823 824 825 827 827 828 828 828 829 829 831 832 833 834 835 837 837 838 838 839 839 839 838 837 836 837 837 837 837 838 838 838 838 837 837 837 837 837 836 836 836 836 837 838 838 839 840 841 841 841 842 842 843 843 843 844 844 845 845 845 845 845 845 845 845 845 846 845
796 797 799 801 802 804 807 809 811 812 813 814 815 817 819 821 822 823 825 826 828 828 829 829 829 830 831 832 833 834 836 837 838 838 839 839 840 840 840 840 839 838 838 838 839 839 839 839 839 839 839 838 838 838 838 837 837 837 837 838 839 840 840 841 842 842 842 843 844 844 844 845 845 845 846 846 846 846 846 847 846 847 847 847 847
794 795 798 799 801 803 805 808 810 812 814 815 817 818 819 821 823 824 825 827 828 829 830 830 831 831 832 833 834 835 837 838 839 839 840 840 841 841 841 841 841 840 840 840 840 841 841 841 840 840 840 840 840 839 839 838 838 838 839 839 840 841 841 842 843 843 843 844 845 845 846 846 846 846 847 847 847 847 848 848 848 848 848 849 848
793 795 797 799 801 803 805 807 809 812 814 816 818 819 821 822 824 825 826 827 829 830 831 831 832 833 834 834 835 836 838 839 840 840 841 841 842 842 842 842 842 842 842 842 842 842 842 842 842 841 841 841 841 841 840 839 839 839 840 841 841 842 842 843 843 844 844 845 846 847 847 848 847 848 848 849 849 849 849 850 850 850 850 850 850
793 795 797 800 802 804 805 808 810 812 814 816 819 820 822 823 825 826 827 829 830 831 832 833 833 834 835 836 837 837 839 840 841 841 842 842 843 843 843 843 843 843 843 843 843 843 844 844 843 843 843 842 842 842 842 841 841 841 841 842 842 842 843 844 844 845 846 846 847 848 849 849 849 849 850 850 850 851 851 851 851 851 852 851 852
792 794 797 800 801 804 806 808 810 812 814 817 819 821 823 824 826 827 829 830 831 832 833 834 835 836 836 837 838 839 840 841 842 842 843 843 844 844 844 844 844 844 845 845 845 845 845 845 845 844 844 844 844 844 843 843 842 842 842 842 843 843 844 844 845 846 847 847 848 849 850 850 850 851 851 851 852 852 852 853 853 853 853 853 853
790 792 795 798 800 804 805 808 810 812 815 817 819 821 824 826 827 828 830 831 832 834 835 836 836 837 838 839 840 840 841 842 843 843 844 844 845 845 845 845 845 845 845 846 846 846 847 847 847 846 845 845 845 845 845 844 844 844 843 844 844 844 845 845 846 847 848 848 849 850 851 851 852 852 852 853 853 854 854 854 854 855 854 854 855
789 790 793 796 799 803 805 807 809 812 814 817 820 822 824 826 828 829 831 832 833 835 836 837 838 839 839 840 841 842 843 843 844 845 845 846 846 846 846 846 846 846 846 847 847 848 849 849 848 847 847 846 846 846 846 846 845 845 845 845 845 845 846 846 847 848 848 849 850 851 852 853 853 853 853 854 854 855 855 855 856 856 856 856 856
790 792 795 797 800 803 806 809 810 813 814 817 820 822 825 826 829 830 832 833 834 836 837 838 839 840 841 842 843 843 844 844 845 846 846 847 847 847 847 847 847 848 848 848 848 849 850 850 850 849 848 848 847 847 847 847 846 846 845 846 847 846 847 847 848 848 849 850 851 852 853 854 854 854 855 855 855 856 856 856 857 857 857 857 857
793 796 798 801 803 806 808 811 813 814 816 818 820 822 825 827 829 831 833 834 835 837 838 839 841 842 842 843 844 845 845 846 846 847 848 848 848 849 849 849 848 849 849 849 849 850 852 852 851 850 850 849 849 848 848 848 847 847 846 847 847 848 848 848 848 849 850 851 851 852 853 855 855 856 856 856 856 857 857 857 858 858 858 858 858
796 798 800 804 806 808 810 812 814 816 817 819 820 822 824 827 829 830 832 834 835 837 839 840 841 843 844 844 845 846 846 847 848 848 849 849 850 850 850 850 850 850 850 850 850 851 853 853 852 852 851 850 850 849 849 849 848 848 848 848 849 849 849 849 849 850 851 851 852 853 854 855 856 856 857 857 857 858 858 858 859 859 859 859 859
799 800 801 804 806 810 811 813 815 816 818 819 821 822 824 826 828 830 831 833 835 837 839 840 842 843 844 845 846 847 848 848 849 849 850 851 851 851 851 851 851 852 852 852 852 853 854 854 854 853 852 851 851 851 851 850 849 849 849 849 850 850 851 850 850 851 852 852 853 853 855 856 857 857 857 857 858 858 859 859 860 860 860 860 860
801 801 802 804 807 810 813 815 816 817 819 820 821 822 824 825 827 829 831 833 835 837 839 840 842 844 845 846 846 847 848 849 850 850 851 852 852 852 852 852 853 853 853 853 853 854 855 855 855 855 854 853 852 852 852 851 851 850 850 850 851 851 851 852 852 852 852 853 854 854 855 857 857 858 858 858 859 859 859 860 860 860 861 861 861
803 803 804 805 807 811 813 816 817 818 819 820 821 822 823 825 826 828 830 832 834 836 838 840 842 843 845 846 847 847 848 849 850 851 852 853 853 853 853 853 854 854 854 854 854 855 856 856 857 856 855 854 853 853 853 853 852 852 852 852 852 852 852 853 853 853 854 854 855 855 857 857 858 858 859 859 859 860 860 860 861 861 861 862 862
805 806 807 807 808 811 813 816 818 819 819 819 821 822 823 824 825 827 829 831 832 834 836 838 840 842 844 845 846 847 848 849 850 852 852 853 854 854 854 855 855 855 855 855 856 856 856 857 858 857 856 855 855 854 854 854 853 853 853 853 853 853 854 854 854 855 855 855 856 856 857 858 858 859 859 860 860 860 860 861 861 861 862 862 863
807 808 809 809 809 811 813 815 816 818 818 818 820 821 822 822 824 825 827 829 831 833 834 836 838 840 843 844 846 846 848 849 850 852 853 854 855 855 856 855 856 856 856 856 857 856 857 858 858 858 857 857 856 856 856 855 854 854 854 855 854 855 855 855 855 856 856 857 857 858 858 859 859 860 860 860 861 861 861 861 862 862 862 863 863
807 809 810 811 810 811 812 814 815 817 818 818 819 820 822 823 823 824 826 828 829 831 833 834 836 838 840 842 844 845 847 849 850 852 853 854 855 856 856 856 857 857 857 857 857 857 858 859 859 859 858 857 857 857 857 856 856 855 855 855 855 856 856 856 856 857 857 858 858 859 859 859 860 861 861 861 861 861 861 862 862 862 863 863 864
807 809 811 811 810 810 811 813 815 818 821 822 821 822 823 824 824 825 825 827 828 830 832 833 835 837 839 841 842 844 846 848 850 851 852 854 855 856 857 857 857 857 857 857 857 858 858 859 859 859 858 858 858 858 857 857 857 856 856 857 856 857 857 857 857 857 858 859 859 859 860 860 860 861 862 862 862 862 862 862 863 863 863 863 864
807 808 809 809 809 811 812 814 816 819 822 825 825 825 826 827 827 826 826 827 828 830 831 833 834 836 838 839 841 843 845 847 848 850 852 853 855 856 857 857 857 857 858 857 858 858 859 859 859 859 859 859 858 858 858 858 857 857 857 858 857 857 857 857 858 858 858 859 860 860 860 861 861 862 862 863 862 862 863 863 863 863 864 864 864
806 807 807 809 811 812 814 816 818 820 823 826 828 829 829 829 829 829 828 828 828 829 831 832 833 835 836 838 840 841 843 845 847 849 851 853 854 856 857 858 858 858 858 858 858 859 859 860 860 859 859 859 859 858 859 859 858 857 858 858 858 858 858 858 858 858 859 859 860 860 861 861 862 862 862 863 863 863 863 863 863 864 864 864 865
806 807 808 810 811 812 813 815 816 818 821 824 827 830 831 830 829 829 828 829 829 829 830 831 833 834 835 837 838 840 842 844 846 848 850 852 854 855 857 858 858 858 858 859 859 859 860 860 860 860 860 860 859 859 859 859 858 858 858 859 859 859 859 859 858 859 859 859 860 861 861 861 862 862 862 863 863 863 863 864 864 864 865 865 865
807 808 809 810 811 811 812 813 813 815 816 817 819 823 828 830 829 827 827 827 829 830 830 831 832 833 834 836 837 839 841 843 845 847 849 852 854 855 857 858 858 858 858 859 859 859 860 860 860 860 860 860 860 860 859 860 859 858 859 859 859 860 860 859 859 859 859 860 860 860 861 861 862 862 863 863 863 863 863 864 864 865 865 865 865
808 808 809 810 811 811 812 812 813 813 814 815 816 816 820 825 827 828 826 825 826 829 831 831 832 833 834 835 836 838 840 842 844 846 848 850 853 855 856 857 858 858 858 858 859 859 860 860 860 860 860 860 860 860 860 860 860 859 859 859 860 860 860 860 860 860 860 860 860 861 861 861 861 862 863 863 863 863 864 864 865 865 865 865 865
808 808 809 810 810 811 811 811 811 811 811 813 815 815 815 819 822 826 827 825 824 826 829 831 832 832 833 835 836 838 840 841 843 845 847 849 852 854 856 857 857 858 858 858 859 859 860 860 860 859 859 859 860 860 859 860 860 859 859 859 860 860 860 860 860 860 860 860 860 861 861 861 861 862 863 864 864 863 864 864 865 865 865 865 865
806 807 808 809 809 809 809 809 809 810 811 812 813 813 814 816 819 823 825 825 824 824 825 828 830 831 833 834 836 838 840 841 843 844 846 848 851 853 855 857 857 858 858 858 858 859 859 859 859 859 859 859 859 859 859 859 859 859 859 859 859 860 860 860 860 860 860 860 860 861 861 861 861 862 863 863 863 864 864 864 865 865 865 865 865
805 806 807 807 807 807 807 808 808 809 810 810 811 812 812 813 816 821 824 823 822 822 822 823 826 829 831 833 835 838 840 842 843 844 846 848 850 852 854 856 857 858 858 858 858 858 859 858 858 859 859 859 859 859 859 859 859 859 858 858 859 859 860 860 860 860 860 860 860 860 861 861 861 862 863 863 864 864 864 864 864 865 865 865 865
806 807 806 806 807 808 808 808 808 809 809 809 810 810 812 812 812 817 821 821 820 821 822 822 823 825 828 830 833 836 839 841 843 845 846 848 849 851 853 855 856 857 858 858 858 858 858 858 857 858 858 858 858 858 858 858 858 858 858 858 858 858 859 859 860 860 860 860 860 860 861 861 861 862 863 863 863 864 864 864 864 864 865 865 865
808 807 807 808 810 810 810 810 809 808 808 809 809 809 810 811 810 812 817 819 818 819 820 822 823 823 824 827 830 834 837 840 843 844 846 847 849 850 852 854 855 857 858 858 858 858 857 857 856 857 857 857 857 857 857 857 857 857 857 857 857 858 858 859 859 859 860 860 860 860 861 861 861 862 862 862 863 863 863 863 864 864 864 865 865
810 810 810 810 811 811 811 811 810 809 809 809 809 809 809 809 808 809 812 815 817 818 819 820 822 823 824 825 827 830 834 837 840 843 845 847 848 849 851 852 854 856 857 857 857 857 857 856 856 856 856 856 856 856 856 856 856 856 856 856 857 857 857 858 858 859 859 860 860 860 861 861 861 862 862 862 862 863 863 863 863 863 864 864 864
812 812 812 812 811 810 811 810 810 810 810 809 809 808 808 808 806 806 809 812 815 816 817 818 819 822 824 825 825 826 830 833 836 839 842 845 847 849 850 851 853 854 855 856 856 856 856 856 855 855 855 854 854 855 855 855 855 855 856 856 856 856 857 857 858 859 859 859 860 860 860 861 861 861 861 862 862 862 863 863 863 863 864 864 864
813 813 813 812 811 810 810 809 809 809 809 809 809 808 807 807 805 803 805 808 812 813 815 816 817 819 821 823 824 825 827 829 833 836 838 840 844 847 850 851 851 852 853 854 855 855 855 854 854 854 854 853 853 854 854 854 854 855 855 855 855 856 856 856 857 858 859 859 859 860 860 860 861 861 861 861 862 862 862 863 863 863 863 864 864
813 813 813 812 811 809 808 808 808 808 808 808 808 808 807 807 805 803 803 804 807 810 812 814 815 817 818 819 822 824 825 827 830 833 835 836 840 845 849 851 851 850 851 852 852 853 853 853 853 853 853 852 852 853 854 854 854 854 855 855 855 855 856 856 857 858 858 858 859 859 860 860 860 860 861 861 861 861 861 862 862 862 863 863 863
813 813 812 812 811 810 808 807 807 807 807 807 807 807 807 806 805 803 801 801 803 805 808 810 812 814 815 817 819 821 823 826 829 831 833 833 835 839 844 849 852 850 849 849 850 850 851 851 851 852 851 851 852 853 853 854 854 854 854 855 855 855 855 855 856 857 857 858 859 859 859 859 859 860 860 860 860 861 861 861 861 862 862 862 863
814 814 812 811 810 810 808 806 806 806 806 806 806 806 806 806 806 805 803 802 802 804 805 807 810 811 813 815 816 818 821 823 827 829 831 832 831 833 837 844 850 852 849 847 848 849 849 850 850 851 851 850 851 852 852 853 853 854 854 855 855 855 855 855 855 856 856 857 858 858 858 858 859 859 859 859 860 860 860 860 860 861 861 862 862
815 815 814 812 810 809 809 807 806 805 805 805 805 805 804 805 807 807 805 805 804 803 804 805 807 810 812 814 815 817 819 821 824 826 828 829 830 831 832 837 843 849 850 848 846 847 847 848 849 849 850 849 850 851 852 852 851 852 853 855 856 855 855 855 855 855 855 856 857 857 857 857 857 857 858 858 858 859 859 859 859 860 860 861 861
817 816 815 813 811 809 808 807 805 804 804 803 804 804 803 803 805 806 804 804 803 803 803 804 806 809 811 813 814 815 817 819 821 823 825 827 829 831 831 833 836 841 847 848 845 844 845 846 847 848 849 849 849 849 850 850 850 851 853 854 855 855 856 855 854 854 855 855 855 856 856 856 856 856 857 857 857 857 858 858 858 858 859 859 860
818 817 815 814 812 810 809 807 805 804 803 802 803 804 803 803 804 804 803 804 804 804 805 806 806 807 809 812 814 815 816 817 819 821 822 824 826 829 830 832 833 834 840 844 844 842 843 844 845 846 847 847 848 848 849 849 849 850 852 853 854 856 856 853 852 853 854 854 854 854 854 854 855 855 855 855 856 856 856 857 857 857 857 858 859
819 817 816 814 812 810 808 807 805 803 802 802 803 804 803 802 802 803 804 804 805 807 808 808 806 806 808 810 813 814 815 816 817 819 820 821 823 825 826 828 831 831 832 837 840 839 840 842 844 845 845 846 847 847 848 849 848 847 848 850 853 855 853 851 852 852 852 852 852 852 853 853 853 853 853 853 854 855 855 855 855 856 856 856 857
820 818 816 814 812 810 808 806 804 803 802 801 802 802 801 801 801 803 805 805 807 808 810 810 808 807 807 808 811 813 814 815 816 817 818 819 820 821 822 824 826 829 829 830 834 836 837 839 841 842 843 844 846 847 847 848 848 847 846 845 847 848 848 850 853 853 851 851 851 851 851 851 851 851 851 851 852 852 853 853 853 854 854 855 855
821 818 815 814 812 809 807 805 803 802 801 801 801 800 800 800 801 802 804 803 803 804 807 810 810 809 809 808 809 811 813 814 815 817 817 818 819 819 820 821 822 825 827 827 828 831 834 836 838 840 841 843 844 844 844 846 846 846 845 844 843 843 843 845 849 851 851 850 849 849 850 850 850 849 849 849 849 850 851 851 852 852 852 853 853
821 818 816 814 812 809 807 805 803 802 801 801 800 800 800 799 799 800 800 799 798 799 801 804 806 808 809 807 807 809 811 812 814 815 816 817 818 818 819 820 820 822 824 825 825 827 830 833 835 836 838 839 840 840 841 842 842 842 843 843 842 841 840 841 842 844 847 847 847 847 847 848 849 848 847 847 847 848 848 849 850 850 850 851 851
821 819 816 814 811 809 807 804 803 802 800 800 800 800 799 798 798 798 797 796 796 798 799 799 800 802 804 805 805 806 808 810 812 814 815 816 816 817 818 819 818 818 819 821 822 824 826 829 830 832 834 834 835 836 837 838 838 839 840 841 841 841 840 839 839 840 841 843 844 844 844 846 846 845 844 845 845 845 846 847 847 848 848 848 849
821 819 816 813 811 809 807 804 803 802 800 800 800 799 799 798 797 796 795 795 795 796 797 797 798 799 801 802 802 803 805 807 809 811 813 814 814 815 816 817 817 817 816 817 818 820 822 824 826 827 829 830 830 832 833 835 836 836 838 839 840 840 840 839 838 838 839 840 841 841 841 843 842 841 841 842 842 842 843 844 845 845 845 846 846
820 818 815 813 811 808 807 804 803 801 800 799 799 798 798 797 795 794 794 794 793 794 794 794 796 797 798 798 799 799 801 803 806 808 810 811 812 813 814 814 815 815 815 814 814 815 817 820 822 823 824 825 826 828 830 833 834 835 837 837 838 838 838 837 836 837 837 838 839 840 839 839 839 838 837 838 839 840 841 841 842 842 843 843 844